| time (UTC) | temp F | wind direction | speed knots | gust knots | rain 1hr in | rain 24hr in | rain mn in | humidity % | barometer mb |
| 20260508142703 | 77 | 185 | 1.7 | 7.0 | 0.00 | 0.00 | 0.00 | 38 | 1008.3 |
| 20260508141803 | 76 | 227 | 1.7 | 8.7 | 0.00 | 0.00 | 0.00 | 37 | 1008.4 |
| 20260508140903 | 75 | 224 | 3.5 | 7.8 | 0.00 | 0.00 | 0.00 | 38 | 1008.5 |
| 20260508140003 | 74 | 238 | 3.5 | 8.7 | 0.00 | 0.00 | 0.00 | 40 | 1008.7 |
| 20260508135403 | 75 | 236 | 3.5 | 8.7 | 0.00 | 0.00 | 0.00 | 39 | 1008.8 |
| 20260508134503 | 75 | 236 | 2.6 | 7.0 | 0.00 | 0.00 | 0.00 | 39 | 1008.8 |
| 20260508133817 | 75 | 193 | 2.6 | 7.8 | 0.00 | 0.00 | 0.00 | 39 | 1008.9 |
| 20260508132703 | 74 | 145 | 1.7 | 4.3 | 0.00 | 0.00 | 0.00 | 41 | 1008.8 |
| 20260508131803 | 74 | 214 | 0.9 | 6.1 | 0.00 | 0.00 | 0.00 | 41 | 1009.1 |
| 20260508130903 | 74 | 195 | 2.6 | 9.6 | 0.00 | 0.00 | 0.00 | 41 | 1009.2 |
| 20260508130217 | 74 | 196 | 1.7 | 7.0 | 0.00 | 0.00 | 0.00 | 41 | 1009.3 |
| 20260508125403 | 73 | 136 | 2.6 | 8.7 | 0.00 | 0.00 | 0.00 | 42 | 1009.4 |
| 20260508124503 | 74 | 135 | 2.6 | 9.6 | 0.00 | 0.00 | 0.00 | 42 | 1009.5 |
| 20260508123603 | 74 | 196 | 0.9 | 6.1 | 0.00 | 0.00 | 0.00 | 43 | 1009.5 |
| 20260508122703 | 74 | 174 | 1.7 | 7.0 | 0.00 | 0.00 | 0.00 | 42 | 1009.6 |
| 20260508121803 | 73 | 159 | 2.6 | 7.0 | 0.00 | 0.00 | 0.00 | 44 | 1009.8 |
| 20260508120903 | 73 | 169 | 2.6 | 7.8 | 0.00 | 0.00 | 0.00 | 44 | 1009.8 |
| 20260508120217 | 72 | 161 | 1.7 | 5.2 | 0.00 | 0.00 | 0.00 | 44 | 1009.8 |
| 20260508115403 | 72 | 173 | 2.6 | 7.8 | 0.00 | 0.00 | 0.00 | 43 | 1009.9 |
| 20260508114503 | 71 | 226 | 1.7 | 6.1 | 0.00 | 0.00 | 0.00 | 44 | 1009.9 |
| 20260508113603 | 72 | 232 | 2.6 | 7.0 | 0.00 | 0.00 | 0.00 | 43 | 1009.8 |
| 20260508112703 | 71 | 226 | 3.5 | 7.0 | 0.00 | 0.00 | 0.00 | 45 | 1009.9 |
| 20260508111803 | 71 | 272 | 2.6 | 7.8 | 0.00 | 0.00 | 0.00 | 45 | 1010.1 |
| 20260508110903 | 71 | 256 | 1.7 | 7.8 | 0.00 | 0.00 | 0.00 | 44 | 1010.1 |
| 20260508110003 | 71 | 229 | 0.0 | 3.5 | 0.00 | 0.00 | 0.00 | 46 | 1010.2 |
| 20260508105403 | 71 | 214 | 0.9 | 4.3 | 0.00 | 0.00 | 0.00 | 45 | 1010.2 |
| 20260508104503 | 71 | 196 | 1.7 | 7.0 | 0.00 | 0.00 | 0.00 | 45 | 1010.3 |
| 20260508103603 | 70 | 226 | 1.7 | 5.2 | 0.00 | 0.00 | 0.00 | 47 | 1010.3 |
| 20260508102703 | 70 | 207 | 1.7 | 7.0 | 0.00 | 0.00 | 0.00 | 47 | 1010.4 |
| 20260508101803 | 69 | 246 | 1.7 | 7.8 | 0.00 | 0.00 | 0.00 | 48 | 1010.4 |
| 20260508100903 | 69 | 224 | 0.9 | 5.2 | 0.00 | 0.00 | 0.00 | 50 | 1010.5 |
| 20260508100003 | 68 | 222 | 1.7 | 6.1 | 0.00 | 0.00 | 0.00 | 50 | 1010.6 |
| 20260508095403 | 68 | 248 | 2.6 | 7.0 | 0.00 | 0.00 | 0.00 | 52 | 1010.6 |
| 20260508094503 | 67 | 259 | 2.6 | 6.1 | 0.00 | 0.00 | 0.00 | 52 | 1010.8 |
| 20260508093603 | 68 | 241 | 3.5 | 8.7 | 0.00 | 0.00 | 0.00 | 54 | 1010.8 |
| 20260508092703 | 67 | 237 | 2.6 | 7.8 | 0.00 | 0.00 | 0.00 | 56 | 1010.9 |
| 20260508091803 | 67 | 251 | 4.3 | 12.2 | 0.00 | 0.00 | 0.00 | 53 | 1010.9 |
| 20260508090903 | 67 | 234 | 3.5 | 7.8 | 0.00 | 0.00 | 0.00 | 55 | 1010.8 |
| 20260508090003 | 67 | 234 | 3.5 | 7.8 | 0.00 | 0.00 | 0.00 | 57 | 1010.8 |
| 20260508085403 | 66 | 243 | 3.5 | 9.6 | 0.00 | 0.00 | 0.00 | 58 | 1010.8 |
| 20260508084503 | 66 | 236 | 2.6 | 10.4 | 0.00 | 0.00 | 0.00 | 57 | 1010.7 |
| 20260508083603 | 66 | 229 | 0.9 | 4.3 | 0.00 | 0.00 | 0.00 | 66 | 1010.7 |
| 20260508082703 | 65 | 250 | 1.7 | 7.0 | 0.00 | 0.00 | 0.00 | 67 | 1010.8 |
| 20260508082020 | 65 | 237 | 0.9 | 6.1 | 0.00 | 0.00 | 0.00 | 68 | 1010.7 |
| 20260508080903 | 65 | 184 | 0.0 | 2.6 | 0.00 | 0.00 | 0.00 | 70 | 1010.7 |
| 20260508080003 | 64 | 268 | 0.0 | 1.7 | 0.00 | 0.00 | 0.00 | 71 | 1010.7 |
| 20260508075403 | 64 | 0 | 0.0 | 0.0 | 0.00 | 0.00 | 0.00 | 72 | 1010.6 |
| 20260508074503 | 64 | 102 | 0.0 | 0.9 | 0.00 | 0.00 | 0.00 | 73 | 1010.5 |
| 20260508073603 | 63 | 116 | 0.9 | 2.6 | 0.00 | 0.00 | 0.00 | 73 | 1010.5 |
| 20260508072703 | 62 | 115 | 0.0 | 4.3 | 0.00 | 0.00 | 0.00 | 74 | 1010.3 |
| 20260508071803 | 62 | 92 | 0.0 | 2.6 | 0.00 | 0.00 | 0.00 | 76 | 1010.3 |
| 20260508070903 | 61 | 99 | 0.9 | 2.6 | 0.00 | 0.00 | 0.00 | 77 | 1010.4 |
| 20260508070004 | 61 | 99 | 0.0 | 2.6 | 0.00 | 0.00 | 0.00 | 77 | 1010.4 |
| 20260508065403 | 61 | 117 | 0.0 | 1.7 | 0.00 | 0.00 | 0.00 | 76 | 1010.4 |
| 20260508064719 | 60 | 0 | 0.0 | 0.0 | 0.00 | 0.00 | 0.00 | 79 | 1010.3 |
| 20260508063603 | 59 | 0 | 0.0 | 0.0 | 0.00 | 0.00 | 0.00 | 82 | 1010.3 |
| 20260508062703 | 57 | 0 | 0.0 | 0.0 | 0.00 | 0.00 | 0.00 | 85 | 1010.3 |
| 20260508061803 | 56 | 79 | 0.0 | 0.9 | 0.00 | 0.00 | 0.00 | 86 | 1010.1 |
| 20260508060903 | 56 | 77 | 0.0 | 0.9 | 0.00 | 0.00 | 0.00 | 85 | 1010.1 |
| 20260508060003 | 56 | 0 | 0.0 | 0.0 | 0.00 | 0.00 | 0.00 | 87 | 1010.1 |
| 20260508055403 | 55 | 0 | 0.0 | 0.0 | 0.00 | 0.00 | 0.00 | 87 | 1010.0 |
| 20260508054503 | 55 | 0 | 0.0 | 0.0 | 0.00 | 0.00 | 0.00 | 88 | 1010.1 |
| 20260508053603 | 55 | 0 | 0.0 | 0.0 | 0.00 | 0.00 | 0.00 | 88 | 1009.9 |
| 20260508052703 | 55 | 0 | 0.0 | 0.0 | 0.00 | 0.00 | 0.00 | 87 | 1009.7 |
| 20260508051803 | 55 | 0 | 0.0 | 0.0 | 0.00 | 0.00 | 0.00 | 87 | 1009.3 |
| 20260508050903 | 55 | 0 | 0.0 | 0.0 | 0.00 | 0.00 | 0.00 | 87 | 1009.5 |
| 20260508050003 | 55 | 0 | 0.0 | 0.0 | 0.00 | 0.00 | 0.00 | 86 | 1009.4 |
| 20260508045403 | 56 | 0 | 0.0 | 0.0 | 0.00 | 0.00 | 0.00 | 86 | 1009.3 |
| 20260508044503 | 56 | 0 | 0.0 | 0.0 | 0.00 | 0.00 | 0.00 | 85 | 1009.1 |
| 20260508043603 | 56 | 0 | 0.0 | 0.0 | 0.00 | 0.00 | 0.00 | 84 | 1008.9 |
| 20260508042920 | 56 | 0 | 0.0 | 0.0 | 0.00 | 0.00 | 0.00 | 84 | 1008.6 |
| 20260508041803 | 58 | 0 | 0.0 | 0.0 | 0.00 | 0.00 | 0.00 | 81 | 1008.9 |
| 20260508040903 | 58 | 0 | 0.0 | 0.0 | 0.00 | 0.00 | 0.00 | 81 | 1009.0 |
| 20260508040003 | 58 | 0 | 0.0 | 0.0 | 0.00 | 0.00 | 0.00 | 80 | 1009.2 |
| 20260508035403 | 58 | 0 | 0.0 | 0.0 | 0.00 | 0.00 | 0.00 | 81 | 1009.0 |
| 20260508034503 | 59 | 0 | 0.0 | 0.0 | 0.00 | 0.00 | 0.00 | 80 | 1008.9 |
| 20260508033603 | 59 | 125 | 0.0 | 1.7 | 0.00 | 0.00 | 0.00 | 79 | 1008.9 |
| 20260508032703 | 59 | 128 | 0.0 | 2.6 | 0.00 | 0.00 | 0.00 | 79 | 1009.1 |
| 20260508031803 | 59 | 150 | 0.0 | 2.6 | 0.00 | 0.00 | 0.00 | 79 | 1008.9 |
| 20260508030903 | 59 | 150 | 0.0 | 2.6 | 0.00 | 0.00 | 0.00 | 79 | 1009.4 |
| 20260508030004 | 59 | 157 | 0.0 | 3.5 | 0.00 | 0.00 | 0.00 | 79 | 1009.2 |
| 20260508025403 | 59 | 167 | 0.0 | 2.6 | 0.00 | 0.00 | 0.00 | 79 | 1009.3 |
| 20260508024717 | 59 | 144 | 0.0 | 1.7 | 0.00 | 0.00 | 0.00 | 79 | 1009.3 |
| 20260508023603 | 59 | 169 | 0.0 | 3.5 | 0.00 | 0.00 | 0.00 | 79 | 1009.3 |
| 20260508022703 | 59 | 170 | 0.9 | 4.3 | 0.00 | 0.00 | 0.00 | 79 | 1009.3 |
| 20260508022019 | 59 | 166 | 0.9 | 4.3 | 0.00 | 0.00 | 0.00 | 79 | 1009.4 |
| 20260508020903 | 59 | 159 | 0.9 | 2.6 | 0.00 | 0.00 | 0.00 | 79 | 1009.3 |
| 20260508020003 | 60 | 155 | 0.9 | 3.5 | 0.00 | 0.00 | 0.00 | 78 | 1009.3 |
| 20260508015403 | 60 | 167 | 0.9 | 4.3 | 0.00 | 0.00 | 0.00 | 79 | 1009.3 |
| 20260508014718 | 59 | 174 | 0.9 | 4.3 | 0.00 | 0.00 | 0.00 | 79 | 1009.3 |
| 20260508013603 | 60 | 179 | 0.9 | 2.6 | 0.00 | 0.00 | 0.00 | 79 | 1009.5 |
| 20260508012703 | 60 | 203 | 0.0 | 3.5 | 0.00 | 0.00 | 0.00 | 79 | 1009.5 |
| 20260508011803 | 60 | 197 | 0.0 | 2.6 | 0.00 | 0.00 | 0.00 | 79 | 1009.5 |
| 20260508010903 | 60 | 159 | 0.0 | 3.5 | 0.00 | 0.00 | 0.00 | 79 | 1009.5 |
| 20260508010003 | 60 | 182 | 0.0 | 3.5 | 0.00 | 0.00 | 0.00 | 79 | 1009.7 |
| 20260508005403 | 60 | 178 | 0.0 | 3.5 | 0.00 | 0.00 | 0.00 | 78 | 1009.7 |
| 20260508004503 | 60 | 181 | 0.0 | 3.5 | 0.00 | 0.00 | 0.00 | 77 | 1009.8 |
| 20260508003603 | 60 | 173 | 0.9 | 2.6 | 0.00 | 0.00 | 0.00 | 77 | 1009.8 |
| 20260508002703 | 60 | 172 | 0.9 | 3.5 | 0.00 | 0.00 | 0.00 | 77 | 1009.7 |
| 20260508001803 | 60 | 156 | 0.0 | 2.6 | 0.00 | 0.00 | 0.00 | 76 | 1009.7 |
| 20260508000903 | 61 | 161 | 0.9 | 3.5 | 0.00 | 0.00 | 0.00 | 75 | 1009.8 |
| 20260508000003 | 61 | 180 | 0.9 | 2.6 | 0.00 | 0.00 | 0.00 | 75 | 1009.9 |
| 20260507235403 | 61 | 212 | 0.0 | 1.7 | 0.00 | 0.00 | 0.00 | 75 | 1009.9 |
| 20260507234503 | 61 | 197 | 0.0 | 1.7 | 0.00 | 0.00 | 0.00 | 74 | 1009.9 |
| 20260507233603 | 61 | 0 | 0.0 | 0.0 | 0.00 | 0.00 | 0.00 | 73 | 1009.7 |
| 20260507232918 | 61 | 0 | 0.0 | 0.0 | 0.00 | 0.00 | 0.00 | 73 | 1009.8 |
| 20260507231803 | 61 | 160 | 0.0 | 3.5 | 0.00 | 0.00 | 0.00 | 73 | 1009.9 |
| 20260507230903 | 61 | 137 | 0.0 | 0.9 | 0.00 | 0.00 | 0.00 | 72 | 1010.0 |
| 20260507230003 | 61 | 142 | 0.0 | 2.6 | 0.00 | 0.00 | 0.00 | 70 | 1009.9 |
| 20260507225403 | 61 | 174 | 0.0 | 1.7 | 0.00 | 0.00 | 0.00 | 69 | 1010.2 |
| 20260507224720 | 62 | 183 | 0.0 | 1.7 | 0.00 | 0.00 | 0.00 | 67 | 1010.3 |
| 20260507223603 | 62 | 190 | 0.0 | 1.7 | 0.00 | 0.00 | 0.00 | 65 | 1010.4 |
| 20260507222703 | 62 | 177 | 0.0 | 2.6 | 0.00 | 0.00 | 0.00 | 66 | 1010.4 |
| 20260507222016 | 62 | 176 | 0.0 | 1.7 | 0.00 | 0.00 | 0.00 | 66 | 1010.5 |
| 20260507220903 | 62 | 186 | 0.0 | 1.7 | 0.00 | 0.00 | 0.00 | 66 | 1010.3 |
| 20260507220004 | 62 | 204 | 0.0 | 1.7 | 0.00 | 0.00 | 0.00 | 65 | 1010.2 |
| 20260507215403 | 62 | 206 | 0.0 | 1.7 | 0.00 | 0.00 | 0.00 | 65 | 1010.2 |
| 20260507214720 | 62 | 0 | 0.0 | 0.0 | 0.00 | 0.00 | 0.00 | 65 | 1010.3 |
| 20260507213603 | 63 | 235 | 0.0 | 0.9 | 0.00 | 0.00 | 0.00 | 64 | 1010.3 |
| 20260507212703 | 63 | 0 | 0.0 | 0.0 | 0.00 | 0.00 | 0.00 | 63 | 1010.2 |
| 20260507211803 | 63 | 0 | 0.0 | 0.0 | 0.00 | 0.00 | 0.00 | 64 | 1010.1 |
| 20260507211120 | 63 | 286 | 0.0 | 2.6 | 0.00 | 0.00 | 0.00 | 63 | 1010.1 |
| 20260507210003 | 63 | 278 | 0.0 | 0.9 | 0.00 | 0.00 | 0.00 | 63 | 1009.9 |
| 20260507205403 | 63 | 0 | 0.0 | 0.0 | 0.00 | 0.00 | 0.00 | 62 | 1009.9 |
| 20260507204503 | 63 | 283 | 0.0 | 0.9 | 0.00 | 0.00 | 0.00 | 62 | 1009.9 |
| 20260507203603 | 64 | 283 | 0.0 | 1.7 | 0.00 | 0.00 | 0.00 | 61 | 1009.9 |
| 20260507202703 | 64 | 262 | 0.0 | 1.7 | 0.00 | 0.00 | 0.00 | 60 | 1009.9 |
| 20260507202018 | 64 | 262 | 0.0 | 1.7 | 0.00 | 0.00 | 0.00 | 59 | 1009.9 |
| 20260507200903 | 65 | 263 | 0.0 | 1.7 | 0.00 | 0.00 | 0.00 | 59 | 1009.8 |
| 20260507200003 | 65 | 255 | 0.0 | 4.3 | 0.00 | 0.00 | 0.00 | 59 | 1009.7 |
| 20260507195403 | 65 | 272 | 0.0 | 4.3 | 0.00 | 0.00 | 0.00 | 59 | 1009.8 |
| 20260507194503 | 66 | 251 | 0.9 | 6.1 | 0.00 | 0.00 | 0.00 | 57 | 1009.7 |
| 20260507193819 | 66 | 251 | 0.9 | 6.1 | 0.00 | 0.00 | 0.00 | 56 | 1009.6 |
| 20260507192703 | 66 | 260 | 1.7 | 7.0 | 0.00 | 0.00 | 0.00 | 56 | 1009.4 |
| 20260507192018 | 67 | 252 | 1.7 | 7.0 | 0.00 | 0.00 | 0.00 | 55 | 1009.3 |
| 20260507190903 | 67 | 252 | 1.7 | 7.0 | 0.00 | 0.00 | 0.00 | 55 | 1009.1 |
| 20260507190218 | 68 | 247 | 2.6 | 10.4 | 0.00 | 0.00 | 0.00 | 54 | 1009.0 |
| 20260507185403 | 68 | 250 | 4.3 | 10.4 | 0.00 | 0.00 | 0.00 | 52 | 1008.8 |
| 20260507184503 | 68 | 251 | 4.3 | 12.2 | 0.00 | 0.00 | 0.00 | 51 | 1008.6 |
| 20260507183603 | 69 | 251 | 5.2 | 12.2 | 0.00 | 0.00 | 0.00 | 50 | 1008.5 |
| 20260507182703 | 70 | 255 | 4.3 | 11.3 | 0.00 | 0.00 | 0.00 | 50 | 1008.4 |
| 20260507181803 | 70 | 254 | 4.3 | 10.4 | 0.00 | 0.00 | 0.00 | 50 | 1008.2 |
| 20260507180903 | 71 | 259 | 3.5 | 10.4 | 0.00 | 0.00 | 0.00 | 50 | 1008.2 |
| 20260507180004 | 71 | 251 | 3.5 | 11.3 | 0.00 | 0.00 | 0.00 | 48 | 1008.1 |
| 20260507175403 | 72 | 250 | 3.5 | 9.6 | 0.00 | 0.00 | 0.00 | 47 | 1008.0 |
| 20260507174503 | 72 | 256 | 3.5 | 11.3 | 0.00 | 0.00 | 0.00 | 46 | 1007.8 |
| 20260507173603 | 72 | 254 | 5.2 | 12.2 | 0.00 | 0.00 | 0.00 | 45 | 1007.7 |
| 20260507172703 | 73 | 239 | 5.2 | 11.3 | 0.00 | 0.00 | 0.00 | 44 | 1007.6 |
| 20260507171803 | 73 | 243 | 3.5 | 11.3 | 0.00 | 0.00 | 0.00 | 44 | 1007.6 |
| 20260507170903 | 73 | 245 | 4.3 | 11.3 | 0.00 | 0.00 | 0.00 | 43 | 1007.5 |
| 20260507170003 | 74 | 244 | 4.3 | 10.4 | 0.00 | 0.00 | 0.00 | 43 | 1007.4 |
| 20260507165403 | 74 | 245 | 4.3 | 10.4 | 0.00 | 0.00 | 0.00 | 43 | 1007.4 |
| 20260507164503 | 75 | 253 | 3.5 | 9.6 | 0.00 | 0.00 | 0.00 | 42 | 1007.3 |
| 20260507163821 | 75 | 229 | 3.5 | 9.6 | 0.00 | 0.00 | 0.00 | 42 | 1007.2 |
| 20260507162703 | 76 | 237 | 3.5 | 9.6 | 0.00 | 0.00 | 0.00 | 39 | 1007.2 |
| 20260507161803 | 76 | 242 | 2.6 | 8.7 | 0.00 | 0.00 | 0.00 | 39 | 1007.1 |
| 20260507160903 | 76 | 223 | 1.7 | 8.7 | 0.00 | 0.00 | 0.00 | 37 | 1007.2 |
| 20260507160003 | 76 | 222 | 2.6 | 10.4 | 0.00 | 0.00 | 0.00 | 40 | 1007.0 |
| 20260507155616 | 76 | 219 | 3.5 | 9.6 | 0.00 | 0.00 | 0.00 | 38 | 1007.1 |
| 20260507154503 | 76 | 212 | 2.6 | 9.6 | 0.00 | 0.00 | 0.00 | 38 | 1007.2 |
| 20260507153603 | 76 | 212 | 2.6 | 11.3 | 0.00 | 0.00 | 0.00 | 37 | 1007.1 |
| 20260507152703 | 77 | 206 | 1.7 | 7.8 | 0.00 | 0.00 | 0.00 | 37 | 1007.1 |
| 20260507151803 | 76 | 214 | 0.9 | 7.8 | 0.00 | 0.00 | 0.00 | 37 | 1007.2 |
| 20260507150903 | 76 | 211 | 1.7 | 7.0 | 0.00 | 0.00 | 0.00 | 39 | 1007.3 |
| 20260507150221 | 76 | 231 | 3.5 | 7.8 | 0.00 | 0.00 | 0.00 | 40 | 1007.4 |
| 20260507145403 | 76 | 213 | 3.5 | 8.7 | 0.00 | 0.00 | 0.00 | 41 | 1007.5 |
| 20260507144719 | 76 | 224 | 3.5 | 7.8 | 0.00 | 0.00 | 0.00 | 41 | 1007.4 |
| 20260507143603 | 75 | 211 | 3.5 | 9.6 | 0.00 | 0.00 | 0.00 | 39 | 1007.5 |